Time,TemperatureF,DewpointF,PressureIn,WindDirection,WindDirectionDegrees,WindSpeedMPH,WindSpeedGustMPH,Humidity,HourlyPrecipIn,Conditions,Clouds,dailyrainin,SoftwareType,DateUTC
2013-01-03 00:02:00,36.3,7.2,30.28,NNE,32,7.0,12.0,29,0.00,,,0.04,meteohub,2013-01-03 08:02:00,
2013-01-03 00:07:00,36.5,6.4,30.28,North,9,6.0,12.0,28,0.00,,,0.00,meteohub,2013-01-03 08:07:00,
2013-01-03 00:12:00,36.5,6.4,30.28,NNE,32,10.0,12.0,28,0.00,,,0.00,meteohub,2013-01-03 08:12:00,
2013-01-03 00:18:00,36.7,6.6,30.28,NNE,27,8.0,11.0,28,0.00,,,0.00,meteohub,2013-01-03 08:18:00,
2013-01-03 00:23:00,36.7,6.6,30.28,NE,36,6.0,10.0,28,0.00,,,0.00,meteohub,2013-01-03 08:23:00,
2013-01-03 00:28:00,36.7,6.6,30.28,NNE,32,7.0,10.0,28,0.00,,,0.00,meteohub,2013-01-03 08:28:00,
2013-01-03 00:33:00,36.7,5.9,30.28,NNE,20,6.0,10.0,27,0.00,,,0.00,meteohub,2013-01-03 08:33:00,
2013-01-03 00:38:00,37.2,5.5,30.28,NNE,27,6.0,10.0,26,0.00,,,0.00,meteohub,2013-01-03 08:38:00,
2013-01-03 00:43:00,37.6,5.7,30.28,NNE,17,5.0,10.0,26,0.00,,,0.00,meteohub,2013-01-03 08:43:00,
2013-01-03 00:48:00,37.8,5.9,30.28,NNE,20,4.0,10.0,26,0.00,,,0.00,meteohub,2013-01-03 08:48:00,
2013-01-03 00:54:00,37.4,6.4,30.28,NNE,17,3.0,10.0,27,0.00,,,0.00,meteohub,2013-01-03 08:54:00,
2013-01-03 00:59:00,37.2,7.2,30.28,NNE,29,5.0,9.0,28,0.00,,,0.00,meteohub,2013-01-03 08:59:00,
2013-01-03 01:04:00,37.0,7.0,30.28,NNW,344,6.0,9.0,28,0.00,,,0.00,meteohub,2013-01-03 09:04:00,
2013-01-03 01:09:00,37.0,7.7,30.28,North,10,4.0,9.0,29,0.00,,,0.00,meteohub,2013-01-03 09:09:00,
2013-01-03 01:14:00,36.9,7.5,30.28,NNE,16,7.0,9.0,29,0.00,,,0.00,meteohub,2013-01-03 09:14:00,
2013-01-03 01:19:00,36.9,7.5,30.28,ENE,66,6.0,11.0,29,0.00,,,0.00,meteohub,2013-01-03 09:19:00,
2013-01-03 01:24:00,36.5,7.2,30.28,NE,42,8.0,11.0,29,0.00,,,0.00,meteohub,2013-01-03 09:24:00,
2013-01-03 01:29:00,36.3,7.9,30.28,NNE,25,7.0,11.0,30,0.00,,,0.00,meteohub,2013-01-03 09:29:00,
2013-01-03 01:35:00,36.3,7.2,30.29,NNE,25,7.0,10.0,29,0.00,,,0.00,meteohub,2013-01-03 09:35:00,
2013-01-03 01:40:00,36.9,6.8,30.29,ESE,116,7.0,11.0,28,0.00,,,0.00,meteohub,2013-01-03 09:40:00,
2013-01-03 01:45:00,36.9,6.8,30.29,NNE,18,6.0,13.0,28,0.00,,,0.00,meteohub,2013-01-03 09:45:00,
2013-01-03 01:50:00,36.9,7.5,30.29,NNE,32,6.0,13.0,29,0.00,,,0.00,meteohub,2013-01-03 09:50:00,
2013-01-03 01:55:00,36.7,7.3,30.29,North,5,5.0,10.0,29,0.00,,,0.00,meteohub,2013-01-03 09:55:00,
2013-01-03 02:00:00,36.3,7.2,30.29,North,10,4.0,10.0,29,0.00,,,0.00,meteohub,2013-01-03 10:00:00,
2013-01-03 02:05:00,36.3,7.9,30.28,NE,41,5.0,10.0,30,0.00,,,0.00,meteohub,2013-01-03 10:05:00,
2013-01-03 02:10:00,36.0,7.5,30.28,North,357,9.0,14.0,30,0.00,,,0.00,meteohub,2013-01-03 10:10:00,
2013-01-03 02:15:00,36.0,7.5,30.28,NNE,27,11.0,14.0,30,0.00,,,0.00,meteohub,2013-01-03 10:15:00,
2013-01-03 02:20:00,36.1,7.7,30.28,North,6,11.0,14.0,30,0.00,,,0.00,meteohub,2013-01-03 10:20:00,
2013-01-03 02:25:00,36.0,7.5,30.28,NE,39,3.0,14.0,30,0.00,,,0.00,meteohub,2013-01-03 10:25:00,
2013-01-03 02:30:00,35.4,7.7,30.27,NE,40,9.0,14.0,31,0.00,,,0.00,meteohub,2013-01-03 10:30:00,
2013-01-03 02:36:00,35.1,8.2,30.27,NE,43,10.0,12.0,32,0.00,,,0.00,meteohub,2013-01-03 10:36:00,
2013-01-03 02:41:00,34.9,8.6,30.27,NE,44,9.0,13.0,33,0.00,,,0.00,meteohub,2013-01-03 10:41:00,
2013-01-03 02:46:00,34.9,8.6,30.27,South,190,3.0,13.0,33,0.00,,,0.00,meteohub,2013-01-03 10:46:00,
2013-01-03 02:51:00,34.7,7.9,30.27,NE,35,6.0,12.0,32,0.00,,,0.00,meteohub,2013-01-03 10:51:00,
2013-01-03 02:56:00,35.1,8.2,30.27,NE,56,6.0,13.0,32,0.00,,,0.00,meteohub,2013-01-03 10:56:00,
2013-01-03 03:01:00,35.2,7.7,30.27,North,6,6.0,15.0,31,0.00,,,0.00,meteohub,2013-01-03 11:01:00,
2013-01-03 03:06:00,35.2,8.2,30.27,NNW,328,4.0,15.0,32,0.00,,,0.00,meteohub,2013-01-03 11:06:00,
2013-01-03 03:11:00,34.9,8.6,30.27,NE,39,6.0,15.0,33,0.00,,,0.00,meteohub,2013-01-03 11:11:00,
2013-01-03 03:16:00,34.7,8.6,30.27,NNE,16,8.0,13.0,33,0.00,,,0.00,meteohub,2013-01-03 11:16:00,
2013-01-03 03:21:00,34.7,8.6,30.26,NE,34,7.0,13.0,33,0.00,,,0.00,meteohub,2013-01-03 11:21:00,
2013-01-03 03:27:00,34.7,8.6,30.25,North,349,7.0,12.0,33,0.00,,,0.00,meteohub,2013-01-03 11:27:00,
2013-01-03 03:32:00,34.9,8.6,30.26,North,355,3.0,12.0,33,0.00,,,0.00,meteohub,2013-01-03 11:32:00,
2013-01-03 03:37:00,34.7,8.6,30.25,North,357,4.0,12.0,33,0.00,,,0.00,meteohub,2013-01-03 11:37:00,
2013-01-03 03:42:00,34.3,9.0,30.25,NNE,25,11.0,13.0,34,0.00,,,0.00,meteohub,2013-01-03 11:42:00,
2013-01-03 03:47:00,34.5,9.0,30.25,NNE,32,6.0,13.0,34,0.00,,,0.00,meteohub,2013-01-03 11:47:00,
2013-01-03 03:52:00,34.0,9.1,30.25,ENE,60,3.0,12.0,35,0.00,,,0.00,meteohub,2013-01-03 11:52:00,
2013-01-03 03:57:00,33.3,9.9,30.25,NNW,348,4.0,12.0,37,0.00,,,0.00,meteohub,2013-01-03 11:57:00,
2013-01-03 04:02:00,33.1,9.7,30.25,NNE,15,5.0,13.0,37,0.00,,,0.00,meteohub,2013-01-03 12:02:00,
2013-01-03 04:07:00,32.7,9.9,30.25,NE,41,3.0,13.0,38,0.00,,,0.00,meteohub,2013-01-03 12:07:00,
2013-01-03 04:12:00,32.5,10.4,30.25,NNW,346,4.0,13.0,39,0.00,,,0.00,meteohub,2013-01-03 12:12:00,
2013-01-03 04:17:00,32.4,10.8,30.25,NNE,23,5.0,12.0,40,0.00,,,0.00,meteohub,2013-01-03 12:17:00,
2013-01-03 04:22:00,32.2,10.0,30.25,NE,42,4.0,12.0,39,0.00,,,0.00,meteohub,2013-01-03 12:22:00,
2013-01-03 04:27:00,32.4,10.2,30.25,NNE,32,5.0,10.0,39,0.00,,,0.00,meteohub,2013-01-03 12:27:00,
2013-01-03 04:32:00,32.4,10.2,30.25,NE,42,7.0,11.0,39,0.00,,,0.00,meteohub,2013-01-03 12:32:00,
2013-01-03 04:37:00,32.2,10.6,30.25,NNE,16,1.0,11.0,40,0.00,,,0.00,meteohub,2013-01-03 12:37:00,
2013-01-03 04:42:00,32.0,9.9,30.25,NNW,348,7.0,11.0,39,0.00,,,0.00,meteohub,2013-01-03 12:42:00,
2013-01-03 04:47:00,32.0,9.9,30.25,North,10,5.0,11.0,39,0.00,,,0.00,meteohub,2013-01-03 12:47:00,
2013-01-03 04:52:00,31.8,10.2,30.25,North,352,4.0,11.0,40,0.00,,,0.00,meteohub,2013-01-03 12:52:00,
2013-01-03 04:57:00,31.8,10.2,30.25,NNE,20,2.0,11.0,40,0.00,,,0.00,meteohub,2013-01-03 12:57:00,
2013-01-03 05:02:00,31.6,10.0,30.25,North,1,4.0,9.0,40,0.00,,,0.00,meteohub,2013-01-03 13:02:00,
2013-01-03 05:08:00,31.6,10.0,30.26,NNE,25,6.0,9.0,40,0.00,,,0.00,meteohub,2013-01-03 13:08:00,
2013-01-03 05:13:00,31.6,10.0,30.26,North,8,2.0,8.0,40,0.00,,,0.00,meteohub,2013-01-03 13:13:00,
2013-01-03 05:18:00,31.5,9.9,30.26,NE,54,4.0,9.0,40,0.00,,,0.00,meteohub,2013-01-03 13:18:00,
2013-01-03 05:23:00,31.5,9.9,30.27,NE,53,2.0,9.0,40,0.00,,,0.00,meteohub,2013-01-03 13:23:00,
2013-01-03 05:28:00,31.5,9.9,30.27,NNE,20,6.0,9.0,40,0.00,,,0.00,meteohub,2013-01-03 13:28:00,
2013-01-03 05:33:00,31.6,10.0,30.27,NNE,23,3.0,12.0,40,0.00,,,0.00,meteohub,2013-01-03 13:33:00,
2013-01-03 05:38:00,31.5,10.4,30.28,NNW,340,3.0,12.0,41,0.00,,,0.00,meteohub,2013-01-03 13:38:00,
2013-01-03 05:43:00,31.3,10.2,30.28,NNW,342,5.0,12.0,41,0.00,,,0.00,meteohub,2013-01-03 13:43:00,
2013-01-03 05:48:00,30.9,10.6,30.28,NW,311,5.0,13.0,42,0.00,,,0.00,meteohub,2013-01-03 13:48:00,
2013-01-03 05:53:00,30.7,10.4,30.28,West,280,3.0,13.0,42,0.00,,,0.00,meteohub,2013-01-03 13:53:00,
2013-01-03 05:58:00,30.6,10.2,30.29,NNE,29,3.0,11.0,42,0.00,,,0.00,meteohub,2013-01-03 13:58:00,
2013-01-03 06:03:00,30.4,10.6,30.29,NNE,30,1.0,11.0,43,0.00,,,0.00,meteohub,2013-01-03 14:03:00,
2013-01-03 06:08:00,30.4,10.0,30.29,NE,40,4.0,10.0,42,0.00,,,0.00,meteohub,2013-01-03 14:08:00,
2013-01-03 06:13:00,30.4,10.0,30.29,NNE,33,0.0,10.0,42,0.00,,,0.00,meteohub,2013-01-03 14:13:00,
2013-01-03 06:18:00,30.2,9.9,30.29,NW,323,1.0,6.0,42,0.00,,,0.00,meteohub,2013-01-03 14:18:00,
2013-01-03 06:24:00,30.0,10.2,30.29,North,10,0.0,6.0,43,0.00,,,0.00,meteohub,2013-01-03 14:24:00,
2013-01-03 06:29:00,29.7,9.3,30.30,North,10,0.0,6.0,42,0.00,,,0.00,meteohub,2013-01-03 14:29:00,
2013-01-03 06:34:00,29.3,9.0,30.30,North,10,0.0,4.0,42,0.00,,,0.00,meteohub,2013-01-03 14:34:00,
2013-01-03 06:39:00,28.9,9.3,30.30,WNW,283,1.0,3.0,43,0.00,,,0.00,meteohub,2013-01-03 14:39:00,
2013-01-03 06:44:00,29.1,9.3,30.30,WNW,290,0.0,3.0,43,0.00,,,0.00,meteohub,2013-01-03 14:44:00,
2013-01-03 06:49:00,28.8,9.7,30.30,WNW,289,0.0,3.0,44,0.00,,,0.00,meteohub,2013-01-03 14:49:00,
2013-01-03 06:54:00,28.6,9.0,30.30,WNW,290,0.0,3.0,43,0.00,,,0.00,meteohub,2013-01-03 14:54:00,
2013-01-03 06:59:00,28.4,8.8,30.31,SE,135,0.0,0.0,43,0.00,,,0.00,meteohub,2013-01-03 14:59:00,
2013-01-03 07:04:00,28.6,9.0,30.31,West,269,0.0,0.0,43,0.00,,,0.00,meteohub,2013-01-03 15:04:00,
2013-01-03 07:09:00,28.2,9.1,30.31,West,269,0.0,0.0,44,0.00,,,0.00,meteohub,2013-01-03 15:09:00,
2013-01-03 07:14:00,28.0,9.0,30.31,West,269,0.0,0.0,44,0.00,,,0.00,meteohub,2013-01-03 15:14:00,
2013-01-03 07:19:00,28.0,9.0,30.31,WSW,250,0.0,0.0,44,0.00,,,0.00,meteohub,2013-01-03 15:19:00,
2013-01-03 07:25:00,28.8,9.7,30.32,NW,310,1.0,0.0,44,0.00,,,0.00,meteohub,2013-01-03 15:25:00,
2013-01-03 07:30:00,29.1,9.3,30.32,WNW,295,2.0,2.0,43,0.00,,,0.00,meteohub,2013-01-03 15:30:00,
2013-01-03 07:35:00,29.8,9.5,30.32,NNW,345,3.0,8.0,42,0.00,,,0.00,meteohub,2013-01-03 15:35:00,
2013-01-03 07:40:00,30.7,9.3,30.32,NW,314,4.0,8.0,40,0.00,,,0.00,meteohub,2013-01-03 15:40:00,
2013-01-03 07:45:00,31.6,9.5,30.32,NW,321,2.0,8.0,39,0.00,,,0.00,meteohub,2013-01-03 15:45:00,
2013-01-03 07:50:00,32.5,9.7,30.32,NNW,330,2.0,6.0,38,0.00,,,0.00,meteohub,2013-01-03 15:50:00,
2013-01-03 07:55:00,32.7,9.3,30.32,NNE,23,3.0,6.0,37,0.00,,,0.00,meteohub,2013-01-03 15:55:00,
2013-01-03 08:00:00,33.3,9.9,30.33,North,0,2.0,6.0,37,0.00,,,0.00,meteohub,2013-01-03 16:00:00,
2013-01-03 08:05:00,33.3,10.4,30.33,NNE,25,0.0,6.0,38,0.00,,,0.00,meteohub,2013-01-03 16:05:00,
2013-01-03 08:10:00,33.3,9.9,30.33,North,0,0.0,5.0,37,0.00,,,0.00,meteohub,2013-01-03 16:10:00,
2013-01-03 08:16:00,34.0,9.9,30.33,NE,54,1.0,4.0,36,0.00,,,0.00,meteohub,2013-01-03 16:16:00,
2013-01-03 08:21:00,34.2,10.6,30.33,NE,39,0.0,5.0,37,0.00,,,0.00,meteohub,2013-01-03 16:21:00,
2013-01-03 08:26:00,34.3,10.2,30.33,NNE,30,4.0,5.0,36,0.00,,,0.00,meteohub,2013-01-03 16:26:00,
2013-01-03 08:31:00,34.2,10.0,30.34,NNW,342,3.0,10.0,36,0.00,,,0.00,meteohub,2013-01-03 16:31:00,
2013-01-03 08:36:00,34.2,10.0,30.34,ENE,70,2.0,10.0,36,0.00,,,0.00,meteohub,2013-01-03 16:36:00,
2013-01-03 08:41:00,34.3,10.2,30.34,NNW,338,5.0,10.0,36,0.00,,,0.00,meteohub,2013-01-03 16:41:00,
2013-01-03 08:46:00,34.3,9.5,30.35,NNE,25,7.0,10.0,35,0.00,,,0.00,meteohub,2013-01-03 16:46:00,
2013-01-03 08:51:00,34.7,9.9,30.34,NNE,24,1.0,10.0,35,0.00,,,0.00,meteohub,2013-01-03 16:51:00,
2013-01-03 08:56:00,35.2,9.7,30.34,NE,44,3.0,9.0,34,0.00,,,0.00,meteohub,2013-01-03 16:56:00,
2013-01-03 09:01:00,35.6,10.6,30.35,NE,51,4.0,9.0,35,0.00,,,0.00,meteohub,2013-01-03 17:01:00,
2013-01-03 09:06:00,36.1,9.9,30.35,NW,316,5.0,8.0,33,0.00,,,0.00,meteohub,2013-01-03 17:06:00,
2013-01-03 09:12:00,36.3,9.3,30.35,NNW,342,3.0,10.0,32,0.00,,,0.00,meteohub,2013-01-03 17:12:00,
2013-01-03 09:17:00,36.5,9.5,30.35,NW,321,2.0,10.0,32,0.00,,,0.00,meteohub,2013-01-03 17:17:00,
2013-01-03 09:22:00,36.9,10.4,30.35,WSW,256,3.0,10.0,33,0.00,,,0.00,meteohub,2013-01-03 17:22:00,
2013-01-03 09:27:00,37.0,9.1,30.35,NE,53,2.0,8.0,31,0.00,,,0.00,meteohub,2013-01-03 17:27:00,
2013-01-03 09:32:00,37.6,9.0,30.35,ENE,65,3.0,10.0,30,0.00,,,0.00,meteohub,2013-01-03 17:32:00,
2013-01-03 09:37:00,37.9,7.0,30.35,East,93,4.0,10.0,27,0.00,,,0.00,meteohub,2013-01-03 17:37:00,
2013-01-03 09:42:00,38.3,5.5,30.35,East,79,2.0,13.0,25,0.00,,,0.00,meteohub,2013-01-03 17:42:00,
2013-01-03 09:47:00,38.7,5.9,30.35,NNW,347,7.0,13.0,25,0.00,,,0.00,meteohub,2013-01-03 17:47:00,
2013-01-03 09:52:00,38.7,5.0,30.35,NNW,333,6.0,13.0,24,0.00,,,0.00,meteohub,2013-01-03 17:52:00,
2013-01-03 09:57:00,38.7,5.9,30.35,NNE,24,10.0,12.0,25,0.00,,,0.00,meteohub,2013-01-03 17:57:00,
2013-01-03 10:02:00,38.7,6.8,30.34,NW,309,8.0,15.0,26,0.00,,,0.00,meteohub,2013-01-03 18:02:00,
2013-01-03 10:07:00,38.5,6.6,30.34,NW,323,3.0,16.0,26,0.00,,,0.00,meteohub,2013-01-03 18:07:00,
2013-01-03 10:12:00,38.7,5.9,30.34,NNW,333,3.0,16.0,25,0.00,,,0.00,meteohub,2013-01-03 18:12:00,
2013-01-03 10:17:00,38.7,6.8,30.34,NNW,348,3.0,16.0,26,0.00,,,0.00,meteohub,2013-01-03 18:17:00,
2013-01-03 10:22:00,39.0,7.0,30.34,NNE,30,6.0,15.0,26,0.00,,,0.00,meteohub,2013-01-03 18:22:00,
2013-01-03 10:27:00,38.7,7.5,30.34,NNE,24,6.0,14.0,27,0.00,,,0.00,meteohub,2013-01-03 18:27:00,
2013-01-03 10:32:00,38.7,8.4,30.34,NNE,33,5.0,14.0,28,0.00,,,0.00,meteohub,2013-01-03 18:32:00,
2013-01-03 10:37:00,38.8,8.4,30.34,North,359,0.0,11.0,28,0.00,,,0.00,meteohub,2013-01-03 18:37:00,
2013-01-03 10:42:00,38.8,8.4,30.34,NNE,30,3.0,11.0,28,0.00,,,0.00,meteohub,2013-01-03 18:42:00,
2013-01-03 10:47:00,38.8,8.4,30.34,NNE,18,5.0,11.0,28,0.00,,,0.00,meteohub,2013-01-03 18:47:00,
2013-01-03 10:52:00,38.5,8.2,30.33,NNE,23,7.0,11.0,28,0.00,,,0.00,meteohub,2013-01-03 18:52:00,
2013-01-03 10:57:00,38.7,9.1,30.33,NNE,20,4.0,15.0,29,0.00,,,0.00,meteohub,2013-01-03 18:57:00,
2013-01-03 11:02:00,38.7,8.4,30.33,NNE,29,5.0,15.0,28,0.00,,,0.00,meteohub,2013-01-03 19:02:00,
2013-01-03 11:07:00,38.7,9.1,30.33,SSE,149,3.0,15.0,29,0.00,,,0.00,meteohub,2013-01-03 19:07:00,
2013-01-03 11:12:00,39.0,11.7,30.33,NNW,342,3.0,13.0,32,0.00,,,0.00,meteohub,2013-01-03 19:12:00,
2013-01-03 11:17:00,39.0,9.5,30.33,North,5,7.0,13.0,29,0.00,,,0.00,meteohub,2013-01-03 19:17:00,
2013-01-03 11:45:00,39.0,9.5,30.32,NE,42,7.0,12.0,29,0.00,,,0.00,meteohub,2013-01-03 19:45:00,
2013-01-03 11:51:00,39.2,9.7,30.32,NW,310,9.0,13.0,29,0.00,,,0.00,meteohub,2013-01-03 19:51:00,
2013-01-03 11:56:00,39.4,9.7,30.32,NE,53,4.0,14.0,29,0.00,,,0.00,meteohub,2013-01-03 19:56:00,
2013-01-03 12:01:00,39.6,9.9,30.31,West,271,6.0,14.0,29,0.00,,,0.00,meteohub,2013-01-03 20:01:00,
2013-01-03 12:06:00,39.7,9.3,30.32,North,6,2.0,12.0,28,0.00,,,0.00,meteohub,2013-01-03 20:06:00,
2013-01-03 12:12:00,40.1,9.7,30.31,West,264,10.0,12.0,28,0.00,,,0.00,meteohub,2013-01-03 20:12:00,
2013-01-03 12:17:00,40.1,9.7,30.31,West,260,8.0,13.0,28,0.00,,,0.00,meteohub,2013-01-03 20:17:00,
2013-01-03 12:22:00,40.3,10.6,30.31,NNE,15,4.0,13.0,29,0.00,,,0.00,meteohub,2013-01-03 20:22:00,
2013-01-03 12:27:00,40.3,9.0,30.32,WNW,295,3.0,13.0,27,0.00,,,0.00,meteohub,2013-01-03 20:27:00,
2013-01-03 12:32:00,40.5,9.1,30.32,NNW,335,4.0,11.0,27,0.00,,,0.00,meteohub,2013-01-03 20:32:00,
2013-01-03 12:37:00,40.5,9.9,30.32,NE,41,5.0,11.0,28,0.00,,,0.00,meteohub,2013-01-03 20:37:00,
2013-01-03 12:42:00,40.6,10.9,30.32,West,271,1.0,11.0,29,0.00,,,0.00,meteohub,2013-01-03 20:42:00,
2013-01-03 12:47:00,40.6,8.4,30.32,NNW,340,4.0,11.0,26,0.00,,,0.00,meteohub,2013-01-03 20:47:00,
2013-01-03 12:52:00,40.5,8.2,30.32,NNE,13,1.0,12.0,26,0.00,,,0.00,meteohub,2013-01-03 20:52:00,
2013-01-03 12:57:00,40.3,8.1,30.32,NE,50,2.0,12.0,26,0.00,,,0.00,meteohub,2013-01-03 20:57:00,
2013-01-03 13:02:00,40.3,9.0,30.31,WNW,298,3.0,12.0,27,0.00,,,0.00,meteohub,2013-01-03 21:02:00,
2013-01-03 13:07:00,40.5,9.1,30.31,WNW,290,7.0,12.0,27,0.00,,,0.00,meteohub,2013-01-03 21:07:00,
2013-01-03 13:12:00,40.3,8.1,30.31,NE,51,9.0,10.0,26,0.00,,,0.00,meteohub,2013-01-03 21:12:00,
2013-01-03 13:17:00,40.5,8.2,30.31,NNW,348,5.0,11.0,26,0.00,,,0.00,meteohub,2013-01-03 21:17:00,
2013-01-03 13:22:00,40.5,8.2,30.31,NNE,30,0.0,13.0,26,0.00,,,0.00,meteohub,2013-01-03 21:22:00,
2013-01-03 13:27:00,40.5,8.2,30.31,NNE,24,4.0,13.0,26,0.00,,,0.00,meteohub,2013-01-03 21:27:00,
2013-01-03 13:32:00,40.5,6.4,30.31,WSW,241,2.0,13.0,24,0.00,,,0.00,meteohub,2013-01-03 21:32:00,
2013-01-03 13:37:00,40.3,6.3,30.31,NW,305,6.0,11.0,24,0.00,,,0.00,meteohub,2013-01-03 21:37:00,
2013-01-03 13:42:00,40.5,7.3,30.31,West,263,2.0,13.0,25,0.00,,,0.00,meteohub,2013-01-03 21:42:00,
2013-01-03 13:47:00,40.3,8.1,30.31,North,8,3.0,13.0,26,0.00,,,0.00,meteohub,2013-01-03 21:47:00,
2013-01-03 13:52:00,40.5,8.2,30.31,NE,55,6.0,13.0,26,0.00,,,0.00,meteohub,2013-01-03 21:52:00,
2013-01-03 13:57:00,40.3,7.2,30.31,NW,314,7.0,12.0,25,0.00,,,0.00,meteohub,2013-01-03 21:57:00,
2013-01-03 14:02:00,39.9,7.0,30.31,WNW,284,2.0,12.0,25,0.00,,,0.00,meteohub,2013-01-03 22:02:00,
2013-01-03 14:07:00,39.9,7.9,30.32,West,274,1.0,12.0,26,0.00,,,0.00,meteohub,2013-01-03 22:07:00,
2013-01-03 14:12:00,39.9,7.9,30.32,WNW,288,0.0,11.0,26,0.00,,,0.00,meteohub,2013-01-03 22:12:00,
2013-01-03 14:17:00,40.3,7.2,30.32,NW,304,2.0,10.0,25,0.00,,,0.00,meteohub,2013-01-03 22:17:00,
2013-01-03 14:22:00,40.3,7.2,30.32,NE,46,1.0,9.0,25,0.00,,,0.00,meteohub,2013-01-03 22:22:00,
2013-01-03 14:27:00,40.3,9.0,30.32,NW,311,1.0,9.0,27,0.00,,,0.00,meteohub,2013-01-03 22:27:00,
2013-01-03 14:32:00,40.3,9.0,30.32,ESE,120,1.0,9.0,27,0.00,,,0.00,meteohub,2013-01-03 22:32:00,
2013-01-03 14:37:00,40.1,7.9,30.33,ENE,58,2.0,9.0,26,0.00,,,0.00,meteohub,2013-01-03 22:37:00,
2013-01-03 14:42:00,40.1,8.8,30.32,NE,49,1.0,9.0,27,0.00,,,0.00,meteohub,2013-01-03 22:42:00,
2013-01-03 14:47:00,39.9,8.6,30.32,SE,139,1.0,9.0,27,0.00,,,0.00,meteohub,2013-01-03 22:47:00,
2013-01-03 14:52:00,39.7,8.4,30.33,NE,37,4.0,9.0,27,0.00,,,0.00,meteohub,2013-01-03 22:52:00,
2013-01-03 14:58:00,39.6,8.2,30.33,NW,311,0.0,3.0,27,0.00,,,0.00,meteohub,2013-01-03 22:58:00,
2013-01-03 15:03:00,39.7,7.7,30.33,NNW,347,2.0,4.0,26,0.00,,,0.00,meteohub,2013-01-03 23:03:00,
2013-01-03 15:08:00,39.7,6.8,30.32,North,0,5.0,9.0,25,0.00,,,0.00,meteohub,2013-01-03 23:08:00,
2013-01-03 15:13:00,39.7,7.7,30.32,NNW,333,3.0,9.0,26,0.00,,,0.00,meteohub,2013-01-03 23:13:00,
2013-01-03 15:18:00,39.6,7.5,30.32,NW,307,4.0,9.0,26,0.00,,,0.00,meteohub,2013-01-03 23:18:00,
2013-01-03 15:23:00,39.4,7.3,30.32,NW,312,2.0,7.0,26,0.00,,,0.00,meteohub,2013-01-03 23:23:00,
2013-01-03 15:28:00,39.2,7.2,30.32,WNW,285,4.0,7.0,26,0.00,,,0.00,meteohub,2013-01-03 23:28:00,
2013-01-03 15:33:00,39.0,7.0,30.32,NW,314,3.0,7.0,26,0.00,,,0.00,meteohub,2013-01-03 23:33:00,
2013-01-03 15:38:00,39.0,7.0,30.33,NW,315,2.0,7.0,26,0.00,,,0.00,meteohub,2013-01-03 23:38:00,
2013-01-03 15:43:00,38.8,6.8,30.33,NW,309,3.0,7.0,26,0.00,,,0.00,meteohub,2013-01-03 23:43:00,
2013-01-03 15:48:00,38.7,6.8,30.33,WNW,294,6.0,8.0,26,0.00,,,0.00,meteohub,2013-01-03 23:48:00,
2013-01-03 15:53:00,38.7,6.8,30.33,WNW,291,6.0,8.0,26,0.00,,,0.00,meteohub,2013-01-03 23:53:00,
2013-01-03 15:58:00,38.5,6.6,30.33,WNW,298,3.0,8.0,26,0.00,,,0.00,meteohub,2013-01-03 23:58:00,
2013-01-03 16:04:00,38.3,5.5,30.33,WNW,287,2.0,10.0,25,0.00,,,0.00,meteohub,2013-01-04 00:04:00,
2013-01-03 16:09:00,38.1,6.3,30.33,NNW,344,1.0,10.0,26,0.00,,,0.00,meteohub,2013-01-04 00:09:00,
2013-01-03 16:14:00,37.9,7.0,30.33,NW,315,2.0,8.0,27,0.00,,,0.00,meteohub,2013-01-04 00:14:00,
2013-01-03 16:19:00,37.8,6.8,30.33,NNW,345,2.0,8.0,27,0.00,,,0.00,meteohub,2013-01-04 00:19:00,
2013-01-03 16:24:00,37.4,6.4,30.33,WSW,242,0.0,6.0,27,0.00,,,0.00,meteohub,2013-01-04 00:24:00,
2013-01-03 16:29:00,37.2,7.2,30.33,NNE,23,2.0,6.0,28,0.00,,,0.00,meteohub,2013-01-04 00:29:00,
2013-01-03 16:34:00,36.9,6.8,30.33,NNE,25,3.0,6.0,28,0.00,,,0.00,meteohub,2013-01-04 00:34:00,
2013-01-03 16:39:00,36.7,7.3,30.33,North,349,3.0,6.0,29,0.00,,,0.00,meteohub,2013-01-04 00:39:00,
2013-01-03 16:44:00,36.3,7.2,30.33,NNW,340,4.0,6.0,29,0.00,,,0.00,meteohub,2013-01-04 00:44:00,
2013-01-03 16:49:00,36.3,7.2,30.33,North,1,2.0,7.0,29,0.00,,,0.00,meteohub,2013-01-04 00:49:00,
2013-01-03 16:54:00,36.1,7.0,30.33,NNE,13,1.0,7.0,29,0.00,,,0.00,meteohub,2013-01-04 00:54:00,
2013-01-03 16:59:00,36.0,6.8,30.33,NW,312,2.0,7.0,29,0.00,,,0.00,meteohub,2013-01-04 00:59:00,
2013-01-03 17:04:00,35.8,5.9,30.33,NW,323,2.0,6.0,28,0.00,,,0.00,meteohub,2013-01-04 01:04:00,
2013-01-03 17:10:00,35.6,5.7,30.33,WNW,285,2.0,5.0,28,0.00,,,0.00,meteohub,2013-01-04 01:10:00,
2013-01-03 17:15:00,35.4,6.3,30.33,North,352,2.0,6.0,29,0.00,,,0.00,meteohub,2013-01-04 01:15:00,
2013-01-03 17:20:00,35.1,6.1,30.33,NW,316,0.0,7.0,29,0.00,,,0.00,meteohub,2013-01-04 01:20:00,
2013-01-03 17:25:00,34.9,6.6,30.34,NE,44,0.0,6.0,30,0.00,,,0.00,meteohub,2013-01-04 01:25:00,
2013-01-03 17:30:00,34.5,7.0,30.34,NNE,29,0.0,2.0,31,0.00,,,0.00,meteohub,2013-01-04 01:30:00,
2013-01-03 17:35:00,34.3,6.8,30.34,NE,41,1.0,3.0,31,0.00,,,0.00,meteohub,2013-01-04 01:35:00,
2013-01-03 17:40:00,34.3,5.4,30.34,NE,34,3.0,3.0,29,0.00,,,0.00,meteohub,2013-01-04 01:40:00,
2013-01-03 17:45:00,34.5,5.5,30.35,NNE,13,0.0,5.0,29,0.00,,,0.00,meteohub,2013-01-04 01:45:00,
2013-01-03 17:50:00,34.5,5.5,30.35,North,352,1.0,8.0,29,0.00,,,0.00,meteohub,2013-01-04 01:50:00,
2013-01-03 17:55:00,34.5,5.5,30.35,NNW,333,1.0,8.0,29,0.00,,,0.00,meteohub,2013-01-04 01:55:00,
2013-01-03 18:00:00,34.5,4.8,30.35,North,9,1.0,5.0,28,0.00,,,0.00,meteohub,2013-01-04 02:00:00,
2013-01-03 18:05:00,34.5,4.8,30.35,NW,304,1.0,5.0,28,0.00,,,0.00,meteohub,2013-01-04 02:05:00,
2013-01-03 18:10:00,34.3,5.4,30.35,NNE,32,0.0,5.0,29,0.00,,,0.00,meteohub,2013-01-04 02:10:00,
2013-01-03 18:15:00,34.3,4.6,30.35,NW,307,1.0,5.0,28,0.00,,,0.00,meteohub,2013-01-04 02:15:00,
2013-01-03 18:21:00,34.2,4.5,30.35,West,273,1.0,5.0,28,0.00,,,0.00,meteohub,2013-01-04 02:21:00,
2013-01-03 18:26:00,34.2,4.5,30.35,NW,304,0.0,6.0,28,0.00,,,0.00,meteohub,2013-01-04 02:26:00,
2013-01-03 18:31:00,34.0,4.3,30.35,WNW,283,1.0,6.0,28,0.00,,,0.00,meteohub,2013-01-04 02:31:00,
2013-01-03 18:36:00,34.0,4.3,30.35,West,273,3.0,6.0,28,0.00,,,0.00,meteohub,2013-01-04 02:36:00,
2013-01-03 18:41:00,33.8,4.1,30.35,NNW,343,2.0,6.0,28,0.00,,,0.00,meteohub,2013-01-04 02:41:00,
2013-01-03 18:46:00,33.6,3.9,30.36,WSW,256,0.0,6.0,28,0.00,,,0.00,meteohub,2013-01-04 02:46:00,
2013-01-03 18:51:00,33.4,3.7,30.35,WNW,290,2.0,5.0,28,0.00,,,0.00,meteohub,2013-01-04 02:51:00,
2013-01-03 18:56:00,33.4,3.7,30.36,South,186,0.0,5.0,28,0.00,,,0.00,meteohub,2013-01-04 02:56:00,
2013-01-03 19:01:00,33.1,3.6,30.36,WNW,287,1.0,5.0,28,0.00,,,0.00,meteohub,2013-01-04 03:01:00,
2013-01-03 19:06:00,33.1,2.7,30.36,WSW,245,1.0,3.0,27,0.00,,,0.00,meteohub,2013-01-04 03:06:00,
2013-01-03 19:11:00,33.3,2.8,30.36,West,275,1.0,7.0,27,0.00,,,0.00,meteohub,2013-01-04 03:11:00,
2013-01-03 19:16:00,33.1,2.7,30.36,South,173,0.0,7.0,27,0.00,,,0.00,meteohub,2013-01-04 03:16:00,
2013-01-03 19:22:00,33.1,3.6,30.36,NW,307,4.0,7.0,28,0.00,,,0.00,meteohub,2013-01-04 03:22:00,
2013-01-03 19:27:00,33.1,2.7,30.36,West,266,1.0,7.0,27,0.00,,,0.00,meteohub,2013-01-04 03:27:00,
2013-01-03 19:32:00,33.1,2.7,30.36,SSW,193,1.0,7.0,27,0.00,,,0.00,meteohub,2013-01-04 03:32:00,
2013-01-03 19:37:00,32.7,2.5,30.37,WSW,252,0.0,5.0,27,0.00,,,0.00,meteohub,2013-01-04 03:37:00,
2013-01-03 19:42:00,32.7,2.5,30.37,WSW,243,1.0,4.0,27,0.00,,,0.00,meteohub,2013-01-04 03:42:00,
2013-01-03 19:47:00,32.2,2.7,30.37,SW,229,0.0,3.0,28,0.00,,,0.00,meteohub,2013-01-04 03:47:00,
2013-01-03 19:52:00,31.8,1.6,30.37,SW,224,1.0,3.0,27,0.00,,,0.00,meteohub,2013-01-04 03:52:00,
2013-01-03 19:57:00,31.8,1.6,30.37,SW,231,2.0,2.0,27,0.00,,,0.00,meteohub,2013-01-04 03:57:00,
2013-01-03 20:02:00,32.2,1.2,30.36,SW,231,0.0,3.0,26,0.00,,,0.00,meteohub,2013-01-04 04:02:00,
2013-01-03 20:07:00,32.4,0.5,30.37,WSW,254,0.0,3.0,25,0.00,,,0.00,meteohub,2013-01-04 04:07:00,
2013-01-03 20:12:00,32.5,0.7,30.36,West,264,2.0,3.0,25,0.00,,,0.00,meteohub,2013-01-04 04:12:00,
2013-01-03 20:17:00,32.7,0.0,30.36,NW,312,0.0,4.0,24,0.00,,,0.00,meteohub,2013-01-04 04:17:00,
2013-01-03 20:22:00,32.5,-0.2,30.37,West,259,0.0,4.0,24,0.00,,,0.00,meteohub,2013-01-04 04:22:00,
2013-01-03 20:27:00,32.2,-0.6,30.36,WSW,243,0.0,4.0,24,0.00,,,0.00,meteohub,2013-01-04 04:27:00,
2013-01-03 20:32:00,32.0,0.1,30.36,WSW,240,0.0,1.0,25,0.00,,,0.00,meteohub,2013-01-04 04:32:00,
2013-01-03 20:37:00,32.0,0.1,30.36,WSW,242,0.0,0.0,25,0.00,,,0.00,meteohub,2013-01-04 04:37:00,
2013-01-03 20:42:00,32.4,-0.4,30.36,SW,220,0.0,0.0,24,0.00,,,0.00,meteohub,2013-01-04 04:42:00,
2013-01-03 20:47:00,32.9,-0.9,30.36,SW,221,1.0,0.0,23,0.00,,,0.00,meteohub,2013-01-04 04:47:00,
2013-01-03 20:52:00,33.1,-0.8,30.36,West,266,0.0,2.0,23,0.00,,,0.00,meteohub,2013-01-04 04:52:00,
2013-01-03 20:57:00,32.7,-0.9,30.37,WSW,248,1.0,3.0,23,0.00,,,0.00,meteohub,2013-01-04 04:57:00,
2013-01-03 21:02:00,32.7,0.0,30.36,SW,225,1.0,3.0,24,0.00,,,0.00,meteohub,2013-01-04 05:02:00,
2013-01-03 21:04:00,32.5,-0.2,30.37,SW,220,0.0,3.0,24,0.00,,,0.00,meteohub,2013-01-04 05:04:00,
2013-01-03 21:05:00,32.5,-0.2,30.37,SW,220,1.0,2.0,24,0.00,,,0.00,meteohub,2013-01-04 05:05:00,
2013-01-03 21:10:00,32.4,-0.4,30.37,SW,224,1.0,2.0,24,0.00,,,0.00,meteohub,2013-01-04 05:10:00,
2013-01-03 21:15:00,32.4,-0.4,30.37,WSW,238,1.0,2.0,24,0.00,,,0.00,meteohub,2013-01-04 05:15:00,
2013-01-03 21:20:00,32.5,-0.2,30.37,WSW,242,2.0,2.0,24,0.00,,,0.00,meteohub,2013-01-04 05:20:00,
2013-01-03 21:26:00,33.1,-0.8,30.37,WSW,250,0.0,3.0,23,0.00,,,0.00,meteohub,2013-01-04 05:26:00,
2013-01-03 21:31:00,33.3,-0.6,30.37,SW,235,0.0,3.0,23,0.00,,,0.00,meteohub,2013-01-04 05:31:00,
2013-01-03 21:36:00,33.1,-0.8,30.37,WSW,238,1.0,3.0,23,0.00,,,0.00,meteohub,2013-01-04 05:36:00,
2013-01-03 21:41:00,33.1,-1.7,30.36,West,259,1.0,3.0,22,0.00,,,0.00,meteohub,2013-01-04 05:41:00,
2013-01-03 21:46:00,32.7,-2.0,30.36,West,276,1.0,3.0,22,0.00,,,0.00,meteohub,2013-01-04 05:46:00,
2013-01-03 21:51:00,33.1,-1.7,30.37,SW,215,1.0,4.0,22,0.00,,,0.00,meteohub,2013-01-04 05:51:00,
2013-01-03 21:56:00,32.9,0.0,30.37,WSW,239,1.0,4.0,24,0.00,,,0.00,meteohub,2013-01-04 05:56:00,
2013-01-03 22:01:00,32.5,-1.1,30.37,WSW,252,0.0,4.0,23,0.00,,,0.00,meteohub,2013-01-04 06:01:00,
2013-01-03 22:06:00,32.0,-0.8,30.37,West,263,0.0,3.0,24,0.00,,,0.00,meteohub,2013-01-04 06:06:00,
2013-01-03 22:11:00,31.6,-0.2,30.37,West,259,0.0,1.0,25,0.00,,,0.00,meteohub,2013-01-04 06:11:00,
2013-01-03 22:16:00,31.5,-0.4,30.37,West,263,0.0,0.0,25,0.00,,,0.00,meteohub,2013-01-04 06:16:00,
2013-01-03 22:22:00,30.9,0.0,30.37,West,263,0.0,0.0,26,0.00,,,0.00,meteohub,2013-01-04 06:22:00,
2013-01-03 22:27:00,30.6,-0.2,30.38,West,263,0.0,0.0,26,0.00,,,0.00,meteohub,2013-01-04 06:27:00,
2013-01-03 22:32:00,30.4,0.3,30.37,West,259,0.0,0.0,27,0.00,,,0.00,meteohub,2013-01-04 06:32:00,
2013-01-03 22:37:00,30.0,0.1,30.38,West,259,0.0,0.0,27,0.00,,,0.00,meteohub,2013-01-04 06:37:00,
2013-01-03 22:42:00,29.8,0.0,30.38,West,259,0.0,0.0,27,0.00,,,0.00,meteohub,2013-01-04 06:42:00,
2013-01-03 22:47:00,29.7,0.5,30.38,WSW,248,0.0,0.0,28,0.00,,,0.00,meteohub,2013-01-04 06:47:00,
2013-01-03 22:52:00,29.7,0.5,30.38,WSW,242,0.0,0.0,28,0.00,,,0.00,meteohub,2013-01-04 06:52:00,
2013-01-03 22:57:00,29.5,0.3,30.38,WSW,243,0.0,0.0,28,0.00,,,0.00,meteohub,2013-01-04 06:57:00,
2013-01-03 23:02:00,29.1,0.9,30.38,WSW,242,0.0,0.0,29,0.00,,,0.00,meteohub,2013-01-04 07:02:00,
2013-01-03 23:07:00,28.8,0.5,30.39,WSW,240,0.0,0.0,29,0.00,,,0.00,meteohub,2013-01-04 07:07:00,
2013-01-03 23:12:00,28.8,0.5,30.38,WSW,238,0.0,0.0,29,0.00,,,0.00,meteohub,2013-01-04 07:12:00,
2013-01-03 23:18:00,29.1,0.9,30.38,SW,236,0.0,0.0,29,0.00,,,0.00,meteohub,2013-01-04 07:18:00,
2013-01-03 23:23:00,29.1,0.9,30.38,SW,235,0.0,0.0,29,0.00,,,0.00,meteohub,2013-01-04 07:23:00,
2013-01-03 23:28:00,29.1,0.9,30.38,SW,235,0.0,0.0,29,0.00,,,0.00,meteohub,2013-01-04 07:28:00,
2013-01-03 23:33:00,28.9,1.4,30.38,WSW,238,0.0,0.0,30,0.00,,,0.00,meteohub,2013-01-04 07:33:00,
2013-01-03 23:38:00,28.8,1.2,30.38,WSW,238,0.0,0.0,30,0.00,,,0.00,meteohub,2013-01-04 07:38:00,
2013-01-03 23:43:00,28.6,1.0,30.38,WSW,250,0.0,0.0,30,0.00,,,0.00,meteohub,2013-01-04 07:43:00,
2013-01-03 23:48:00,28.6,1.8,30.38,WSW,250,0.0,0.0,31,0.00,,,0.00,meteohub,2013-01-04 07:48:00,
2013-01-03 23:53:00,28.6,1.8,30.38,WSW,250,0.0,0.0,31,0.00,,,0.00,meteohub,2013-01-04 07:53:00,
2013-01-03 23:58:00,28.6,1.8,30.38,WSW,250,0.0,0.0,31,0.00,,,0.00,meteohub,2013-01-04 07:58:00,